Tracking 20370 objects as of 19-Feb-2020
HD Live streaming from Space Station
objects crossing your sky now
Track the group of recently launched Starlink satellites

TITAN 3C TRANSTAGE DEB

Track TITAN 3C TRANSTAGE DEB now!
10-day predictions


NORAD ID: 1668
Int'l Code: 1965-082AF
Perigee: 642.8 km
Apogee: 665.9 km
Inclination: 32.1 °
Period: 97.7 minutes
Semi major axis: 7025 km
RCS: 2.8531 m2 (large)
Launch date: October 15, 1965
Source: United States (US)
Launch site: AIR FORCE EASTERN TEST RANGE (AFETR)

Note: This is SATELLITE DEBRIS
aabbcc
Your satellite tracking list
Your tracking list is empty




NASA's NSSDC Master Catalog

Two Line Element Set (TLE):
1  1668U 65082AF  20049.67404411  .00000154  00000-0  16278-4 0  9992
2  1668  32.0695 133.1785 0016401 208.5251 151.4500 14.74351637897620
Source of the keplerian elements: AFSPC